Location: Milevsko
(49.4500°N, 14.3670°E)
Time: 15:47:02
(UTC+01:00)

ISS - Pass Details

Date: 13 November 2025
Orbit: 416 x 420 km, 51.6° (Epoch: 09 December)

Event Time Altitude Azimuth Distance (km) Brightness Sun altitude
Rises 18:05:05 0° 205° (SSW) 2,356 0.5 -16.6°
Reaches altitude 10° 18:07:35 10° 187° (S) 1,494 -0.8 -17.0°
Enters shadow 18:09:31 18° 152° (SSE) 1,098 -1.9 -17.3°
